TimeAKDT,TemperatureF,Dew PointF,Humidity,Sea Level PressureIn,VisibilityMPH,Wind Direction,Wind SpeedMPH,Gust SpeedMPH,PrecipitationIn,Events,Conditions,WindDirDegrees,DateUTC
12:02 AM,55.4,51.8,88,29.59,5.0,ENE,8.1,-,0.00,Rain,Light Rain,70,2013-08-24 08:02:00
12:52 AM,55.4,51.8,88,29.59,9.0,East,10.4,18.4,0.01,Rain,Light Rain,80,2013-08-24 08:52:00
12:54 AM,55.9,52.0,87,29.60,10.0,East,10.4,18.4,0.01,Rain,Light Rain,90,2013-08-24 08:54:00
1:10 AM,55.4,51.8,88,29.58,10.0,East,10.4,18.4,0.00,Rain,Light Rain,80,2013-08-24 09:10:00
1:54 AM,55.0,52.0,89,29.59,10.0,East,9.2,21.9,0.00,Rain,Light Rain,90,2013-08-24 09:54:00
2:22 AM,55.4,51.8,88,29.57,8.0,ENE,12.7,20.7,0.01,Rain,Light Rain,60,2013-08-24 10:22:00
2:54 AM,55.0,52.0,89,29.58,10.0,ENE,15.0,24.2,0.01,Rain,Light Rain,70,2013-08-24 10:54:00
3:54 AM,55.0,52.0,89,29.57,9.0,East,13.8,21.9,0.01,Rain,Light Rain,80,2013-08-24 11:54:00
4:54 AM,55.0,52.0,89,29.57,10.0,East,15.0,31.1,0.01,Rain,Light Rain,90,2013-08-24 12:54:00
5:54 AM,55.0,52.0,89,29.57,10.0,ENE,16.1,28.8,0.00,Rain,Light Rain,70,2013-08-24 13:54:00
6:54 AM,55.0,53.1,93,29.59,10.0,East,11.5,20.7,0.00,Rain,Light Rain,100,2013-08-24 14:54:00
7:54 AM,55.0,52.0,89,29.60,10.0,East,10.4,19.6,0.01,Rain,Light Rain,80,2013-08-24 15:54:00
8:37 AM,55.4,51.8,88,29.59,10.0,East,10.4,19.6,0.00,,Overcast,90,2013-08-24 16:37:00
8:54 AM,55.0,52.0,89,29.60,10.0,East,10.4,19.6,0.00,Rain,Light Rain,80,2013-08-24 16:54:00
9:54 AM,55.0,52.0,89,29.61,10.0,East,10.4,20.7,0.00,Rain,Light Rain,80,2013-08-24 17:54:00
10:54 AM,55.9,52.0,87,29.62,10.0,NE,9.2,-,0.00,,Overcast,50,2013-08-24 18:54:00
11:54 AM,55.9,51.1,84,29.64,10.0,East,11.5,20.7,0.00,,Overcast,80,2013-08-24 19:54:00
12:27 PM,55.4,51.8,88,29.63,10.0,ENE,10.4,18.4,0.00,,Overcast,70,2013-08-24 20:27:00
12:54 PM,55.9,51.1,84,29.64,10.0,ENE,11.5,18.4,0.00,Rain,Light Rain,70,2013-08-24 20:54:00
1:54 PM,55.0,52.0,89,29.65,9.0,East,8.1,-,0.04,Rain,Light Rain,90,2013-08-24 21:54:00
2:05 PM,55.4,51.8,88,29.64,7.0,Variable,6.9,-,0.00,Rain,Light Rain,0,2013-08-24 22:05:00
2:54 PM,54.0,52.0,93,29.65,3.0,ENE,10.4,16.1,0.04,Rain,Rain,70,2013-08-24 22:54:00
3:50 PM,55.4,51.8,88,29.65,5.0,ENE,11.5,20.7,0.12,Rain,Rain,60,2013-08-24 23:50:00
3:54 PM,54.0,51.1,90,29.66,7.0,ENE,10.4,20.7,0.12,Rain,Light Rain,60,2013-08-24 23:54:00
4:47 PM,53.6,51.8,94,29.66,3.0,ENE,10.4,-,0.10,Rain,Light Rain,60,2013-08-25 00:47:00
4:54 PM,55.0,52.0,89,29.67,5.0,East,9.2,19.6,0.10,Rain,Light Rain,90,2013-08-25 00:54:00
5:06 PM,55.4,51.8,88,29.66,4.0,East,8.1,16.1,0.02,Rain,Rain,80,2013-08-25 01:06:00
5:34 PM,53.6,51.8,94,29.66,4.0,ENE,6.9,-,0.04,Rain,Light Rain,70,2013-08-25 01:34:00
5:54 PM,55.0,51.1,86,29.66,10.0,ENE,8.1,16.1,0.05,Rain,Light Rain,60,2013-08-25 01:54:00
6:54 PM,54.0,53.1,97,29.66,10.0,ESE,3.5,-,0.01,Rain,Light Rain,110,2013-08-25 02:54:00
7:38 PM,53.6,51.8,94,29.65,10.0,SE,6.9,-,0.00,,Overcast,140,2013-08-25 03:38:00
7:54 PM,54.0,52.0,93,29.66,10.0,Calm,Calm,-,0.00,,Overcast,0,2013-08-25 03:54:00
8:54 PM,53.1,52.0,96,29.68,10.0,WNW,4.6,-,0.00,Rain,Light Rain,300,2013-08-25 04:54:00
9:54 PM,53.1,51.1,93,29.69,10.0,Calm,Calm,-,0.00,,Overcast,0,2013-08-25 05:54:00
10:54 PM,53.1,52.0,96,29.69,10.0,WNW,6.9,-,0.00,,Overcast,300,2013-08-25 06:54:00
11:54 PM,54.0,52.0,93,29.69,10.0,WNW,9.2,-,N/A,,Overcast,290,2013-08-25 07:54:00